sat.trackr.live / text

‹ back to catalog

GEOSCAN 1 (RS92S1)

NORAD 64880 · 2025-155E

PAYLOAD ACTIVE UNKNOWN

§ Identity

Operator
Country
CIS
Launch date
2025-07-25
Launch site
VOSTO
Launch vehicle
Mass (kg)
RCS (m²)

Purposes: comms

External: N2YO · Heavens-Above · Gunter

§ Orbital elements

Epoch: 2026-09-19T21:55:28.814880Z

Period
93.96 min
Inclination
97.4667°
Eccentricity
0.0006924
Mean motion
15.32536668 rev/d
Perigee alt
463.5 km
Apogee alt
473.0 km
Semi-major
6,846.4 km
B*
2.6441e-4
RAAN
232.2461°
Arg perigee
183.5692°
Mean anomaly
176.5502°
Rev number
9,527

§ Raw data

GEOSCAN 1 (RS92S1)1 64880U 25155E   26262.91352795  .00008234  00000+0  26441-3 0  99992 64880  97.4667 232.2461 0006924 183.5692 176.5502 15.32536668 95276

JSON: /api/v1/satellites/64880 · /tle

For live sub-satellite position, see the globe view (requires WebGL).

§ Visibility from observer

Set your observer location to see the next 7 days of passes ≥ 10°. The values pass through the URL so the page stays shareable.

No JS? Fill the form by hand. The geolocation button needs JavaScript.

§ Radio — SatNOGS DB

ModeDescriptionDownlinkUplink
GFSK Mode U - GFSK9k6 - AX.25 Beacon and Ham Payload (Geoscan framing) 435.970 MHz

1 transmitter · refreshed weekly from db.satnogs.org